Flag for United Kingdom Weather past 2 weeks in Stockport, England, United Kingdom

Now
45 °F

Scattered showers. Passing clouds.


Feels Like: 37 °F
Forecast: 41 / 49 °F
Wind: 18 mph from West

Location: Manchester Airport

Current Time: Dec 20, 2014 at 8:28:54 AM

Latest Report: Dec 20, 2014 at 7:50 AM


Visibility: N/A

Pressure: 30.12 "Hg

Humidity: 81%

Dew point: 39 °F

Location of StockportLocation

Historic Weather in Stockport — Graph

°F

Stockport temperature yesterday

Maximum temperature yesterday: 48 °F (at 12:20 AM)
Minimum temperature yesterday: 39 °F (at 2:20 PM)
Average temperature yesterday: 44 °F

Past Weeks' High & Low Weather Summary

 TemperatureHumidityPressure
High55 °F (Dec 18, 3:20 PM)100% (Dec 5, 7:20 AM)30.36 "Hg (Dec 5, 7:20 AM)
Low27 °F (Dec 6, 1:50 AM)66% (Dec 10, 11:20 AM)29.15 "Hg (Dec 12, 3:50 AM)
Average42 °F90%29.84 "Hg
* Reported Dec 5 7:20 AM — Dec 20 7:20 AM, Stockport, Weather by CustomWeather, © 2014

Note: Actual official high and low records may vary slightly from our data, if they occured in-between our weather recording intervals... More about our weather records

Advertising

Stockport weather history for previous 24 hours

 ConditionsComfort  
Time TempWeatherWind HumidityBarometerVisibility
7:20 AM
Dec 20
45 °FPassing clouds.21 mph81%30.12 "HgN/A
6:50 AM45 °FPassing clouds.15 mph76%30.12 "HgN/A
6:20 AM45 °FPassing clouds.23 mph81%30.09 "HgN/A
5:50 AM45 °FPartly cloudy.21 mph81%30.09 "HgN/A
5:20 AM45 °FPartly cloudy.22 mph76%30.07 "HgN/A
4:50 AM45 °FPassing clouds.24 mph81%30.09 "HgN/A
4:20 AM45 °FRain. Mostly cloudy.20 mph81%30.09 "Hg4 mi
3:50 AM45 °FPassing clouds.21 mph81%30.09 "HgN/A
3:20 AM45 °FLight rain. Passing clouds.18 mph81%30.09 "HgN/A
2:50 AM43 °FLight rain. Passing clouds.20 mph87%30.09 "HgN/A
2:20 AM45 °FOvercast.18 mph81%30.09 "HgN/A
1:50 AM43 °FLight rain. Mostly cloudy.15 mph81%30.09 "HgN/A
1:20 AM43 °FPartly cloudy.17 mph81%30.09 "HgN/A
12:50 AM43 °FPassing clouds.15 mph81%30.09 "HgN/A
12:20 AM43 °FLight rain. Partly cloudy.16 mph81%30.09 "HgN/A
11:50 PM
Dec 19
43 °FPassing clouds.16 mph81%30.09 "HgN/A
11:20 PM43 °FPartly cloudy.15 mph87%30.09 "HgN/A
10:50 PM43 °FLight rain. Passing clouds.15 mph87%30.09 "HgN/A
10:20 PM43 °FLight rain. Mostly cloudy.12 mph87%30.09 "HgN/A
9:50 PM43 °FLight rain. Overcast.13 mph87%30.09 "Hg5 mi
9:20 PM43 °FLight rain. Partly cloudy.17 mph87%30.09 "HgN/A
8:50 PM43 °FRain. Passing clouds.15 mph87%30.09 "Hg6 mi
8:20 PM43 °FRain. Partly cloudy.14 mph87%30.07 "Hg3 mi
7:50 PM43 °FLight rain. Partly cloudy.16 mph87%30.07 "HgN/A
7:20 PM43 °FLight rain. Passing clouds.15 mph87%30.04 "HgN/A
6:50 PM43 °FLight rain. Partly cloudy.16 mph87%30.04 "Hg5 mi
6:20 PM43 °FPassing clouds.14 mph87%30.04 "HgN/A
5:50 PM41 °FRain. Partly cloudy.15 mph93%30.04 "Hg4 mi
5:20 PM41 °FLight rain. Partly cloudy.18 mph93%30.04 "HgN/A
4:50 PM43 °FPassing clouds.15 mph81%30.01 "HgN/A
4:20 PM41 °FPassing clouds.14 mph87%30.01 "HgN/A
3:50 PM43 °FSleet. Broken clouds.20 mph81%29.98 "Hg6 mi
3:20 PM43 °FScattered clouds.18 mph81%29.95 "HgN/A
2:50 PM43 °FLight rain. Broken clouds.20 mph87%29.95 "HgN/A
2:20 PM39 °FSleet. Partly sunny.14 mph93%29.95 "HgN/A
1:50 PM43 °FRain showers. Partly sunny.20 mph87%29.95 "HgN/A
1:20 PM45 °FSprinkles. Scattered clouds.20 mph76%29.92 "HgN/A
12:50 PM45 °FSprinkles. Scattered clouds.24 mph81%29.92 "HgN/A
12:20 PM45 °FSprinkles. Scattered clouds.20 mph76%29.92 "HgN/A
11:50 AM46 °FSleet. Scattered clouds.20 mph71%29.89 "HgN/A
11:20 AM46 °FSprinkles. Scattered clouds.18 mph71%29.89 "HgN/A
10:50 AM45 °FSprinkles. Scattered clouds.21 mph76%29.89 "HgN/A
10:20 AM45 °FScattered showers. Scattered clouds.18 mph76%29.89 "HgN/A
9:50 AM43 °FScattered showers. Scattered clouds.14 mph81%29.86 "HgN/A
9:20 AM43 °FSprinkles. Scattered clouds.12 mph87%29.86 "HgN/A
8:50 AM43 °FSprinkles. Scattered clouds.18 mph81%29.83 "HgN/A
8:20 AM43 °FScattered showers. Scattered clouds.20 mph81%29.83 "HgN/A
Weather by CustomWeather, © 2014

See weather overviewHow to use our weather pages